DW5256 Weather Reports


time (UTC)temp
F
wind
direction
speed
knots
gust
knots
rain 1hr
in
rain 24hr
in
rain mn
in
humidity
%
barometer
mb
20260508015019 68 229 0.9 3.5 0.00 0.00 0.00 71 1012.8
20260508013518 69 246 0.0 7.0 0.00 0.00 0.00 70 1012.7
20260508012054 69 205 0.0 4.3 0.00 0.00 0.00 70 1012.8
20260508010531 69 253 0.9 6.1 0.00 0.00 0.00 69 1012.8
20260508005028 71 246 0.9 7.0 0.00 0.00 0.00 67 1012.7
20260508003527 72 244 0.0 6.1 0.00 0.00 0.00 66 1012.7
20260508002016 72 236 4.3 8.7 0.00 0.00 0.00 64 1012.6
20260508000516 73 218 0.9 9.6 0.00 0.00 0.00 65 1012.6
20260507235052 73 265 0.9 7.0 0.00 0.00 0.00 64 1012.6
20260507233531 72 289 1.7 7.0 0.00 0.00 0.00 66 1012.6
20260507232026 72 215 1.7 8.7 0.00 0.00 0.00 66 1012.5
20260507230550 71 266 3.5 8.7 0.00 0.00 0.00 66 1012.5
20260507225025 72 263 5.2 10.4 0.00 0.00 0.00 66 1012.7
20260507223525 72 299 2.6 8.7 0.00 0.00 0.00 65 1012.6
20260507222019 72 269 1.7 11.3 0.00 0.00 0.00 65 1012.8
20260507220515 72 309 1.7 9.6 0.00 0.00 0.00 65 1012.9
20260507215050 71 267 2.6 8.7 0.00 0.00 0.00 66 1013.2
20260507213545 71 286 1.7 9.6 0.00 0.00 0.00 66 1013.2
20260507212021 71 272 0.9 10.4 0.00 0.00 0.00 66 1013.3
20260507210538 71 274 0.9 10.4 0.00 0.00 0.00 66 1013.3
20260507205044 73 257 2.6 10.4 0.00 0.00 0.00 63 1013.3
20260507203520 73 240 2.6 13.0 0.00 0.00 0.00 65 1013.5
20260507202017 73 269 3.5 9.6 0.00 0.00 0.00 64 1013.6
20260507200538 73 322 1.7 4.3 0.00 0.00 0.00 63 1013.5
20260507195030 73 237 1.7 12.2 0.00 0.00 0.00 64 1013.6
20260507193535 74 214 0.9 13.0 0.00 0.00 0.00 63 1013.6
20260507192021 73 285 0.9 9.6 0.00 0.00 0.00 63 1013.7
20260507190516 73 284 0.0 6.1 0.00 0.00 0.00 64 1014.0
20260507185046 72 304 0.9 5.2 0.00 0.00 0.00 64 1014.2
20260507183554 71 293 0.9 4.3 0.00 0.00 0.00 65 1014.3
20260507182019 70 331 0.0 6.1 0.00 0.00 0.00 67 1014.3
20260507180531 69 274 0.9 7.0 0.00 0.00 0.00 69 1014.4
20260507175032 68 279 0.0 3.5 0.00 0.00 0.00 69 1014.5
20260507173523 67 288 1.7 6.1 0.00 0.00 0.00 70 1014.6
20260507172031 66 281 0.0 3.5 0.00 0.00 0.00 72 1014.7
20260507170516 64 283 0.0 6.1 0.00 0.00 0.00 75 1014.9
20260507165025 64 289 0.0 4.3 0.00 0.00 0.00 75 1014.9
20260507163534 63 299 0.9 5.2 0.00 0.00 0.00 77 1015.0
20260507162026 62 295 1.7 4.3 0.00 0.00 0.00 78 1015.2
20260507160518 62 269 0.0 0.0 0.00 0.00 0.00 79 1015.0
20260507155028 61 265 0.0 0.0 0.00 0.00 0.00 81 1015.2
20260507153541 60 294 0.0 0.0 0.00 0.00 0.00 82 1015.0
20260507152025 60 275 0.0 0.0 0.00 0.00 0.00 83 1015.0
20260507150516 59 336 0.0 0.0 0.00 0.00 0.00 84 1015.0
20260507145028 58 337 0.0 0.0 0.00 0.00 0.00 85 1015.0
20260507143522 57 337 0.0 0.0 0.00 0.00 0.00 85 1015.0
20260507142037 57 336 0.0 0.0 0.00 0.00 0.00 85 1014.8
20260507140535 57 315 0.0 0.0 0.00 0.00 0.00 86 1014.7
20260507135024 57 310 0.0 0.0 0.00 0.00 0.00 87 1014.5
20260507133532 56 310 0.0 0.0 0.00 0.00 0.00 87 1014.5
20260507132028 56 310 0.0 0.0 0.00 0.00 0.00 87 1014.5
20260507130523 55 310 0.0 0.0 0.00 0.00 0.00 87 1014.5
20260507125020 55 310 0.0 0.0 0.00 0.00 0.00 87 1014.3
20260507123519 55 309 0.0 0.0 0.00 0.00 0.00 86 1014.2
20260507122016 55 309 0.0 0.0 0.00 0.00 0.00 86 1014.2
20260507120515 55 309 0.0 0.0 0.00 0.00 0.00 86 1014.2
20260507115032 55 309 0.0 0.0 0.00 0.00 0.00 86 1014.2
20260507113553 55 309 0.0 0.0 0.00 0.00 0.00 86 1014.2
20260507112027 55 309 0.0 0.0 0.00 0.00 0.00 86 1014.3
20260507110540 55 309 0.0 0.0 0.00 0.00 0.00 86 1014.4
20260507105016 56 309 0.0 0.0 0.00 0.00 0.00 86 1014.4
20260507103514 56 309 0.0 0.0 0.00 0.00 0.00 86 1014.5
20260507102032 56 309 0.0 0.0 0.00 0.00 0.00 86 1014.6
20260507100533 56 309 0.0 0.0 0.00 0.00 0.00 86 1014.6
20260507095045 56 309 0.0 0.0 0.00 0.00 0.00 86 1014.7
20260507093524 57 309 0.0 0.0 0.00 0.00 0.00 85 1014.8
20260507092040 57 309 0.0 0.0 0.00 0.00 0.00 85 1014.9
20260507090543 57 309 0.0 0.0 0.00 0.00 0.00 85 1015.1
20260507085015 57 309 0.0 0.0 0.00 0.00 0.00 85 1015.2
20260507083533 57 309 0.0 0.0 0.00 0.00 0.00 85 1015.3
20260507082033 57 309 0.0 0.0 0.00 0.00 0.00 85 1015.4
20260507080534 57 309 0.0 0.0 0.00 0.00 0.00 85 1015.5
20260507075013 57 309 0.0 0.0 0.00 0.00 0.00 84 1015.6
20260507073531 58 309 0.0 0.0 0.00 0.00 0.00 85 1015.5
20260507072026 58 309 0.0 0.0 0.00 0.00 0.00 84 1015.5
20260507070524 59 309 0.0 0.0 0.00 0.00 0.00 84 1015.6
20260507065031 59 309 0.0 0.0 0.00 0.00 0.00 84 1015.8
20260507063530 59 309 0.0 0.0 0.00 0.00 0.00 83 1015.9
20260507062046 59 309 0.0 0.0 0.00 0.00 0.00 83 1015.9
20260507060527 59 309 0.0 0.0 0.00 0.00 0.00 82 1015.9
20260507055022 59 309 0.0 0.0 0.00 0.00 0.00 81 1015.9
20260507053524 59 309 0.0 0.0 0.00 0.00 0.00 80 1015.9
20260507052022 60 309 0.0 0.0 0.00 0.00 0.00 80 1015.9
20260507050554 60 309 0.0 0.0 0.00 0.00 0.00 80 1015.9
20260507045028 60 309 0.0 0.0 0.00 0.00 0.00 80 1015.9
20260507043528 60 309 0.0 0.0 0.00 0.00 0.00 80 1015.7
20260507042027 60 309 0.0 0.0 0.00 0.00 0.00 80 1015.8
20260507040525 60 309 0.0 3.5 0.00 0.00 0.00 80 1015.7
20260507035028 61 296 0.0 5.2 0.00 0.00 0.00 79 1015.4
20260507033546 61 288 0.0 3.5 0.00 0.00 0.00 77 1015.3
20260507032024 62 319 0.0 5.2 0.00 0.00 0.00 76 1015.1
20260507030524 62 321 0.9 4.3 0.00 0.00 0.00 74 1015.1
20260507025015 63 315 0.9 7.8 0.00 0.00 0.00 72 1014.9
20260507023517 63 314 0.0 3.5 0.00 0.00 0.00 72 1014.7
20260507022014 64 306 1.7 7.8 0.00 0.00 0.00 69 1014.6
20260507020534 65 290 0.9 8.7 0.00 0.00 0.00 67 1014.6